Saint Bonnet de Bellac- Haute Vienne - France
Donnes mto: dimanche, 29/07/2012
Date Horaire Temp. E. Hum. E. P.atmo. Pluie Vent Direction Direction Ensoleilleme Solaire P. de rose Temp au vent Rafales
29/07/2012 00:00 15,1 C 73 % 1014,8 hPa 0,0 mm 5,4 km/h (2 Bft) O-SO 247 0 min 0 W/m 10,3 C 15,1 C 11,2 km/h (2 Bft)
29/07/2012 00:10 14,8 C 74 % 1014,9 hPa 0,0 mm 5,0 km/h (1 Bft) S-SO 202 0 min 0 W/m 10,2 C 14,8 C 11,2 km/h (2 Bft)
29/07/2012 00:20 14,5 C 75 % 1015,0 hPa 0,0 mm 5,4 km/h (2 Bft) SO 225 0 min 0 W/m 10,1 C 14,5 C 13,0 km/h (3 Bft)
29/07/2012 00:30 14,3 C 76 % 1015,0 hPa 0,0 mm 7,2 km/h (2 Bft) S-SO 202 0 min 0 W/m 10,1 C 14,3 C 7,9 km/h (2 Bft)
29/07/2012 00:40 14,0 C 78 % 1014,9 hPa 0,0 mm 6,1 km/h (2 Bft) S-SO 202 0 min 0 W/m 10,2 C 14,0 C 8,3 km/h (2 Bft)
29/07/2012 00:50 13,8 C 79 % 1015,1 hPa 0,0 mm 5,4 km/h (2 Bft) S 180 0 min 0 W/m 10,2 C 13,8 C 9,0 km/h (2 Bft)
29/07/2012 01:00 13,6 C 79 % 1015,2 hPa 0,0 mm 1,8 km/h (1 Bft) SO 225 0 min 0 W/m 10,0 C 13,6 C 5,8 km/h (2 Bft)
29/07/2012 01:10 13,4 C 80 % 1015,3 hPa 0,0 mm 5,8 km/h (2 Bft) S-SO 202 0 min 0 W/m 10,0 C 13,4 C 6,5 km/h (2 Bft)
29/07/2012 01:20 13,3 C 81 % 1015,3 hPa 0,0 mm 5,8 km/h (2 Bft) N 360 0 min 0 W/m 10,1 C 13,3 C 5,8 km/h (2 Bft)
29/07/2012 01:30 13,1 C 82 % 1015,3 hPa 0,0 mm 5,4 km/h (2 Bft) SO 225 0 min 0 W/m 10,1 C 13,1 C 10,8 km/h (2 Bft)
29/07/2012 01:40 13,0 C 82 % 1015,5 hPa 0,0 mm 3,6 km/h (1 Bft) S 180 0 min 0 W/m 10,0 C 13,0 C 11,5 km/h (2 Bft)
29/07/2012 01:50 12,9 C 84 % 1015,5 hPa 0,0 mm 4,3 km/h (1 Bft) O-SO 247 0 min 0 W/m 10,3 C 12,9 C 7,6 km/h (2 Bft)
29/07/2012 02:00 12,9 C 84 % 1015,7 hPa 0,0 mm 4,0 km/h (1 Bft) SO 225 0 min 0 W/m 10,3 C 12,9 C 4,0 km/h (1 Bft)
29/07/2012 02:10 12,9 C 85 % 1015,7 hPa 0,0 mm 2,9 km/h (1 Bft) S-SO 202 0 min 0 W/m 10,4 C 12,9 C 3,2 km/h (1 Bft)
29/07/2012 02:20 13,1 C 84 % 1015,7 hPa 0,0 mm 2,9 km/h (1 Bft) N 360 0 min 0 W/m 10,5 C 13,1 C 2,9 km/h (1 Bft)
29/07/2012 02:30 12,9 C 85 % 1015,6 hPa 0,0 mm 5,0 km/h (1 Bft) SO 225 0 min 0 W/m 10,4 C 12,9 C 11,2 km/h (2 Bft)
29/07/2012 02:40 12,8 C 85 % 1015,7 hPa 0,0 mm 4,7 km/h (1 Bft) S-SO 202 0 min 0 W/m 10,3 C 12,8 C 7,6 km/h (2 Bft)
29/07/2012 02:50 12,6 C 85 % 1015,9 hPa 0,0 mm 1,1 km/h (1 Bft) S-SO 202 0 min 0 W/m 10,1 C 12,6 C 4,0 km/h (1 Bft)
29/07/2012 03:02 12,4 C 86 % 1015,9 hPa 0,0 mm 0,7 km/h (0 Bft) S-SO 202 0 min 0 W/m 10,1 C 12,4 C 4,0 km/h (1 Bft)
29/07/2012 03:10 12,3 C 85 % 1015,9 hPa 0,0 mm 0,0 km/h (0 Bft) S 180 0 min 0 W/m 9,9 C 12,3 C 0,0 km/h (0 Bft)
29/07/2012 03:20 12,1 C 86 % 1015,9 hPa 0,0 mm 0,0 km/h (0 Bft) S-SO 202 0 min 0 W/m 9,8 C 12,1 C 0,0 km/h (0 Bft)
29/07/2012 03:30 11,9 C 86 % 1015,9 hPa 0,0 mm 0,4 km/h (0 Bft) S 180 0 min 0 W/m 9,6 C 11,9 C 3,2 km/h (1 Bft)
29/07/2012 03:40 11,8 C 86 % 1016,0 hPa 0,0 mm 0,0 km/h (0 Bft) S-SO 202 0 min 0 W/m 9,5 C 11,8 C 0,0 km/h (0 Bft)
29/07/2012 03:50 11,6 C 87 % 1015,9 hPa 0,0 mm 0,0 km/h (0 Bft) SO 225 0 min 0 W/m 9,5 C 11,6 C 0,0 km/h (0 Bft)
29/07/2012 04:00 11,4 C 87 % 1016,1 hPa 0,0 mm 0,0 km/h (0 Bft) O-SO 247 0 min 0 W/m 9,3 C 11,4 C 0,0 km/h (0 Bft)
29/07/2012 04:10 11,3 C 88 % 1016,1 hPa 0,0 mm 0,0 km/h (0 Bft) S-SO 202 0 min 0 W/m 9,4 C 11,3 C 0,0 km/h (0 Bft)
29/07/2012 04:20 11,2 C 89 % 1016,1 hPa 0,0 mm 1,1 km/h (1 Bft) S-SO 202 0 min 0 W/m 9,5 C 11,2 C 3,6 km/h (1 Bft)
29/07/2012 04:30 11,1 C 89 % 1016,1 hPa 0,0 mm 0,7 km/h (0 Bft) SO 225 0 min 0 W/m 9,4 C 11,1 C 3,2 km/h (1 Bft)
29/07/2012 04:40 11,2 C 90 % 1016,2 hPa 0,0 mm 0,7 km/h (0 Bft) SO 225 0 min 0 W/m 9,6 C 11,2 C 3,2 km/h (1 Bft)
29/07/2012 04:50 11,2 C 90 % 1016,3 hPa 0,0 mm 2,2 km/h (1 Bft) SO 225 0 min 0 W/m 9,6 C 11,2 C 2,2 km/h (1 Bft)
29/07/2012 05:00 11,1 C 90 % 1016,4 hPa 0,0 mm 2,5 km/h (1 Bft) S-SO 202 0 min 0 W/m 9,5 C 11,1 C 3,6 km/h (1 Bft)
29/07/2012 05:10 11,1 C 90 % 1016,4 hPa 0,0 mm 1,1 km/h (1 Bft) SO 225 0 min 0 W/m 9,5 C 11,1 C 4,3 km/h (1 Bft)
29/07/2012 05:20 11,0 C 90 % 1016,3 hPa 0,0 mm 0,0 km/h (0 Bft) S-SO 202 0 min 0 W/m 9,4 C 11,0 C 0,0 km/h (0 Bft)
29/07/2012 05:30 10,9 C 90 % 1016,4 hPa 0,0 mm 0,0 km/h (0 Bft) SO 225 0 min 0 W/m 9,3 C 10,9 C 0,0 km/h (0 Bft)
29/07/2012 05:40 10,8 C 90 % 1016,3 hPa 0,0 mm 0,0 km/h (0 Bft) S-SO 202 0 min 0 W/m 9,2 C 10,8 C 0,0 km/h (0 Bft)
29/07/2012 05:50 10,8 C 90 % 1016,3 hPa 0,0 mm 0,0 km/h (0 Bft) SO 225 0 min 0 W/m 9,2 C 10,8 C 0,0 km/h (0 Bft)
29/07/2012 06:00 10,6 C 90 % 1016,4 hPa 0,0 mm 0,0 km/h (0 Bft) S-SO 202 0 min 0 W/m 9,0 C 10,6 C 0,0 km/h (0 Bft)
29/07/2012 06:10 10,4 C 90 % 1016,5 hPa 0,0 mm 0,0 km/h (0 Bft) S-SO 202 0 min 0 W/m 8,8 C 10,4 C 0,0 km/h (0 Bft)
29/07/2012 06:20 10,4 C 90 % 1016,4 hPa 0,0 mm 0,0 km/h (0 Bft) S-SO 202 0 min 0 W/m 8,8 C 10,4 C 0,0 km/h (0 Bft)
29/07/2012 06:30 10,3 C 91 % 1016,5 hPa 0,0 mm 0,7 km/h (0 Bft) S 180 0 min 0 W/m 8,9 C 10,3 C 3,6 km/h (1 Bft)
29/07/2012 06:40 10,1 C 91 % 1016,4 hPa 0,0 mm 0,0 km/h (0 Bft) S-SO 202 0 min 0 W/m 8,7 C 10,1 C 0,0 km/h (0 Bft)
29/07/2012 06:50 10,0 C 91 % 1016,4 hPa 0,0 mm 0,0 km/h (0 Bft) S-SO 202 0 min 0 W/m 8,6 C 10,0 C 0,0 km/h (0 Bft)
29/07/2012 07:00 10,0 C 91 % 1016,4 hPa 0,0 mm 0,0 km/h (0 Bft) O-SO 247 0 min 0 W/m 8,6 C 10,0 C 0,0 km/h (0 Bft)
29/07/2012 07:10 10,1 C 92 % 1016,4 hPa 0,0 mm 0,0 km/h (0 Bft) O-SO 247 0 min 0 W/m 8,9 C 10,1 C 0,0 km/h (0 Bft)
29/07/2012 07:20 10,3 C 92 % 1016,4 hPa 0,0 mm 0,0 km/h (0 Bft) SO 225 0 min 0 W/m 9,1 C 10,3 C 0,0 km/h (0 Bft)
29/07/2012 07:30 10,5 C 92 % 1016,6 hPa 0,0 mm 0,0 km/h (0 Bft) O-SO 247 0 min 0 W/m 9,3 C 10,5 C 0,0 km/h (0 Bft)
29/07/2012 07:40 10,6 C 92 % 1016,7 hPa 0,0 mm 0,4 km/h (0 Bft) SO 225 0 min 0 W/m 9,4 C 10,6 C 2,9 km/h (1 Bft)
29/07/2012 07:50 10,6 C 92 % 1016,8 hPa 0,0 mm 0,4 km/h (0 Bft) SO 225 0 min 0 W/m 9,4 C 10,6 C 3,6 km/h (1 Bft)
29/07/2012 08:00 10,6 C 92 % 1016,9 hPa 0,0 mm 0,0 km/h (0 Bft) SO 225 0 min 0 W/m 9,4 C 10,6 C 0,0 km/h (0 Bft)
29/07/2012 08:10 11,2 C 93 % 1016,9 hPa 0,0 mm 0,0 km/h (0 Bft) S-SO 202 0 min 0 W/m 10,1 C 11,2 C 0,0 km/h (0 Bft)
29/07/2012 08:20 11,8 C 93 % 1016,9 hPa 0,0 mm 1,4 km/h (1 Bft) S 180 0 min 0 W/m 10,7 C 11,8 C 2,9 km/h (1 Bft)
29/07/2012 08:30 12,4 C 93 % 1017,1 hPa 0,0 mm 0,4 km/h (0 Bft) SO 225 0 min 0 W/m 11,3 C 12,4 C 0,4 km/h (0 Bft)
29/07/2012 08:40 13,1 C 92 % 1017,2 hPa 0,0 mm 0,0 km/h (0 Bft) O-SO 247 0 min 0 W/m 11,8 C 13,1 C 0,0 km/h (0 Bft)
29/07/2012 08:50 13,5 C 91 % 1017,3 hPa 0,0 mm 0,0 km/h (0 Bft) O-SO 247 0 min 0 W/m 12,1 C 13,5 C 0,0 km/h (0 Bft)
29/07/2012 09:00 14,1 C 88 % 1017,4 hPa 0,0 mm 0,0 km/h (0 Bft) S 180 0 min 0 W/m 12,1 C 14,1 C 0,0 km/h (0 Bft)
29/07/2012 09:10 14,6 C 87 % 1017,6 hPa 0,0 mm 0,0 km/h (0 Bft) S 180 0 min 0 W/m 12,5 C 14,6 C 0,0 km/h (0 Bft)
29/07/2012 09:20 15,3 C 82 % 1017,9 hPa 0,0 mm 0,0 km/h (0 Bft) S 180 0 min 0 W/m 12,2 C 15,3 C 0,0 km/h (0 Bft)
29/07/2012 09:30 15,8 C 78 % 1017,8 hPa 0,0 mm 0,0 km/h (0 Bft) S-SO 202 0 min 0 W/m 12,0 C 15,8 C 0,0 km/h (0 Bft)
29/07/2012 09:40 16,1 C 77 % 1017,7 hPa 0,0 mm 0,4 km/h (0 Bft) S 180 0 min 0 W/m 12,1 C 16,1 C 0,4 km/h (0 Bft)
29/07/2012 09:50 16,5 C 77 % 1018,0 hPa 0,0 mm 0,4 km/h (0 Bft) S 180 0 min 0 W/m 12,5 C 16,5 C 4,0 km/h (1 Bft)
29/07/2012 10:00 17,2 C 74 % 1017,8 hPa 0,0 mm 1,4 km/h (1 Bft) S-SE 157 0 min 0 W/m 12,5 C 17,2 C 4,3 km/h (1 Bft)
29/07/2012 10:10 17,5 C 74 % 1017,9 hPa 0,0 mm 1,4 km/h (1 Bft) S 180 0 min 0 W/m 12,8 C 17,5 C 4,0 km/h (1 Bft)
29/07/2012 10:20 17,9 C 70 % 1018,0 hPa 0,0 mm 2,5 km/h (1 Bft) S-SO 202 0 min 0 W/m 12,3 C 17,9 C 4,3 km/h (1 Bft)
29/07/2012 10:30 18,3 C 69 % 1018,1 hPa 0,0 mm 2,5 km/h (1 Bft) SO 225 0 min 0 W/m 12,5 C 18,3 C 6,1 km/h (2 Bft)
29/07/2012 10:40 18,8 C 69 % 1018,2 hPa 0,0 mm 2,9 km/h (1 Bft) S-SO 202 0 min 0 W/m 13,0 C 18,8 C 4,3 km/h (1 Bft)
29/07/2012 10:50 19,2 C 65 % 1018,2 hPa 0,0 mm 2,2 km/h (1 Bft) SO 225 0 min 0 W/m 12,5 C 19,2 C 2,2 km/h (1 Bft)
29/07/2012 11:00 19,8 C 65 % 1018,1 hPa 0,0 mm 5,4 km/h (2 Bft) S-SE 157 0 min 0 W/m 13,0 C 19,8 C 8,3 km/h (2 Bft)
29/07/2012 11:10 19,9 C 64 % 1018,1 hPa 0,0 mm 0,0 km/h (0 Bft) S 180 0 min 0 W/m 12,9 C 19,9 C 0,0 km/h (0 Bft)
29/07/2012 11:20 20,2 C 64 % 1018,1 hPa 0,0 mm 0,7 km/h (0 Bft) S-SO 202 0 min 0 W/m 13,2 C 20,2 C 4,0 km/h (1 Bft)
29/07/2012 11:30 20,3 C 61 % 1018,2 hPa 0,0 mm 0,4 km/h (0 Bft) S-SO 202 0 min 0 W/m 12,5 C 20,3 C 0,4 km/h (0 Bft)
29/07/2012 11:40 20,1 C 62 % 1018,2 hPa 0,0 mm 1,1 km/h (1 Bft) SO 225 0 min 0 W/m 12,6 C 20,1 C 4,0 km/h (1 Bft)
29/07/2012 11:50 20,0 C 60 % 1018,1 hPa 0,0 mm 1,4 km/h (1 Bft) S-SO 202 0 min 0 W/m 12,0 C 20,0 C 3,6 km/h (1 Bft)
29/07/2012 12:00 20,1 C 60 % 1018,1 hPa 0,0 mm 1,4 km/h (1 Bft) S-SE 157 0 min 0 W/m 12,1 C 20,1 C 3,2 km/h (1 Bft)
29/07/2012 12:10 20,4 C 60 % 1018,1 hPa 0,0 mm 4,7 km/h (1 Bft) NO 315 0 min 0 W/m 12,4 C 20,4 C 9,7 km/h (2 Bft)
29/07/2012 12:20 20,6 C 58 % 1018,1 hPa 0,0 mm 0,4 km/h (0 Bft) S-SO 202 0 min 0 W/m 12,0 C 20,6 C 0,4 km/h (0 Bft)
29/07/2012 12:30 21,1 C 56 % 1018,1 hPa 0,0 mm 3,2 km/h (1 Bft) S 180 0 min 0 W/m 12,0 C 21,1 C 7,9 km/h (2 Bft)
29/07/2012 12:40 21,4 C 54 % 1018,2 hPa 0,0 mm 3,2 km/h (1 Bft) O-SO 247 0 min 0 W/m 11,7 C 21,4 C 4,3 km/h (1 Bft)
29/07/2012 12:50 21,6 C 54 % 1018,2 hPa 0,0 mm 3,2 km/h (1 Bft) S-SO 202 0 min 0 W/m 11,9 C 21,6 C 3,2 km/h (1 Bft)
29/07/2012 13:00 21,9 C 52 % 1018,2 hPa 0,0 mm 1,4 km/h (1 Bft) S 180 0 min 0 W/m 11,6 C 21,9 C 4,0 km/h (1 Bft)
29/07/2012 13:10 21,8 C 52 % 1018,1 hPa 0,0 mm 1,1 km/h (1 Bft) SO 225 0 min 0 W/m 11,5 C 21,8 C 3,6 km/h (1 Bft)
29/07/2012 13:20 21,9 C 52 % 1018,1 hPa 0,0 mm 1,1 km/h (1 Bft) O-SO 247 0 min 0 W/m 11,6 C 21,9 C 3,6 km/h (1 Bft)
29/07/2012 13:30 21,9 C 53 % 1018,1 hPa 0,0 mm 1,1 km/h (1 Bft) SO 225 0 min 0 W/m 11,9 C 21,9 C 4,0 km/h (1 Bft)
29/07/2012 13:40 21,8 C 53 % 1018,0 hPa 0,0 mm 1,4 km/h (1 Bft) S-SO 202 0 min 0 W/m 11,8 C 21,8 C 4,0 km/h (1 Bft)
29/07/2012 13:50 21,8 C 53 % 1017,9 hPa 0,0 mm 0,0 km/h (0 Bft) O 270 0 min 0 W/m 11,8 C 21,8 C 0,0 km/h (0 Bft)
29/07/2012 14:00 21,8 C 54 % 1018,0 hPa 0,0 mm 1,4 km/h (1 Bft) S-SO 202 0 min 0 W/m 12,1 C 21,8 C 1,4 km/h (1 Bft)
29/07/2012 14:10 21,9 C 52 % 1017,9 hPa 0,0 mm 0,4 km/h (0 Bft) O-SO 247 0 min 0 W/m 11,6 C 21,9 C 4,3 km/h (1 Bft)
29/07/2012 14:20 21,8 C 53 % 1017,9 hPa 0,0 mm 7,6 km/h (2 Bft) S 180 0 min 0 W/m 11,8 C 21,8 C 7,6 km/h (2 Bft)
29/07/2012 14:30 22,3 C 51 % 1018,0 hPa 0,0 mm 8,3 km/h (2 Bft) O-SO 247 0 min 0 W/m 11,7 C 22,3 C 12,6 km/h (3 Bft)
29/07/2012 14:40 22,3 C 50 % 1017,9 hPa 0,0 mm 1,4 km/h (1 Bft) S-SO 202 0 min 0 W/m 11,4 C 22,3 C 3,6 km/h (1 Bft)
29/07/2012 14:50 22,3 C 50 % 1017,9 hPa 0,0 mm 5,0 km/h (1 Bft) SO 225 0 min 0 W/m 11,4 C 22,3 C 15,1 km/h (3 Bft)
29/07/2012 15:00 22,5 C 48 % 1017,9 hPa 0,0 mm 1,8 km/h (1 Bft) SO 225 0 min 0 W/m 10,9 C 22,5 C 4,3 km/h (1 Bft)
29/07/2012 15:10 22,6 C 49 % 1017,8 hPa 0,0 mm 3,6 km/h (1 Bft) S-SO 202 0 min 0 W/m 11,3 C 22,6 C 3,6 km/h (1 Bft)
29/07/2012 15:20 22,8 C 50 % 1017,7 hPa 0,0 mm 4,0 km/h (1 Bft) S 180 0 min 0 W/m 11,8 C 22,8 C 6,8 km/h (2 Bft)
29/07/2012 15:30 22,8 C 50 % 1017,7 hPa 0,0 mm 3,2 km/h (1 Bft) SO 225 0 min 0 W/m 11,8 C 22,8 C 10,8 km/h (2 Bft)
29/07/2012 15:40 22,9 C 50 % 1017,7 hPa 0,0 mm 0,7 km/h (0 Bft) O-SO 247 0 min 0 W/m 11,9 C 22,9 C 4,0 km/h (1 Bft)
29/07/2012 15:50 22,9 C 51 % 1017,7 hPa 0,0 mm 1,8 km/h (1 Bft) S 180 0 min 0 W/m 12,2 C 22,9 C 4,3 km/h (1 Bft)
29/07/2012 16:00 22,9 C 51 % 1017,7 hPa 0,0 mm 1,8 km/h (1 Bft) O-SO 247 0 min 0 W/m 12,2 C 22,9 C 6,5 km/h (2 Bft)
29/07/2012 16:10 23,1 C 47 % 1017,7 hPa 0,0 mm 5,8 km/h (2 Bft) SO 225 0 min 0 W/m 11,2 C 23,1 C 9,7 km/h (2 Bft)
29/07/2012 16:20 23,1 C 49 % 1017,6 hPa 0,0 mm 4,0 km/h (1 Bft) O-SO 247 0 min 0 W/m 11,8 C 23,1 C 4,3 km/h (1 Bft)
29/07/2012 16:30 23,3 C 48 % 1017,5 hPa 0,0 mm 1,1 km/h (1 Bft) S-SO 202 0 min 0 W/m 11,7 C 23,3 C 3,6 km/h (1 Bft)
29/07/2012 16:40 23,4 C 47 % 1017,5 hPa 0,0 mm 3,6 km/h (1 Bft) S-SE 157 0 min 0 W/m 11,4 C 23,4 C 4,0 km/h (1 Bft)
29/07/2012 16:50 23,6 C 46 % 1017,5 hPa 0,0 mm 0,7 km/h (0 Bft) S-SO 202 0 min 0 W/m 11,3 C 23,6 C 4,3 km/h (1 Bft)
29/07/2012 17:00 23,5 C 45 % 1017,5 hPa 0,0 mm 1,8 km/h (1 Bft) SO 225 0 min 0 W/m 10,9 C 23,5 C 1,8 km/h (1 Bft)
29/07/2012 17:10 23,7 C 47 % 1017,3 hPa 0,0 mm 0,4 km/h (0 Bft) SO 225 0 min 0 W/m 11,7 C 23,7 C 3,2 km/h (1 Bft)
29/07/2012 17:20 23,6 C 45 % 1017,3 hPa 0,0 mm 1,4 km/h (1 Bft) O 270 0 min 0 W/m 11,0 C 23,6 C 4,0 km/h (1 Bft)
29/07/2012 17:30 23,4 C 45 % 1017,3 hPa 0,0 mm 4,0 km/h (1 Bft) SO 225 0 min 0 W/m 10,8 C 23,4 C 4,3 km/h (1 Bft)
29/07/2012 17:40 23,1 C 47 % 1017,3 hPa 0,0 mm 3,2 km/h (1 Bft) O-SO 247 0 min 0 W/m 11,2 C 23,1 C 3,2 km/h (1 Bft)
29/07/2012 17:50 23,2 C 47 % 1017,3 hPa 0,0 mm 2,9 km/h (1 Bft) NO 315 0 min 0 W/m 11,3 C 23,2 C 2,9 km/h (1 Bft)
29/07/2012 18:00 23,2 C 48 % 1017,3 hPa 0,0 mm 0,0 km/h (0 Bft) O 270 0 min 0 W/m 11,6 C 23,2 C 0,0 km/h (0 Bft)
29/07/2012 18:10 23,4 C 46 % 1017,3 hPa 0,0 mm 7,9 km/h (2 Bft) S-SO 202 0 min 0 W/m 11,1 C 23,4 C 10,8 km/h (2 Bft)
29/07/2012 18:20 23,4 C 46 % 1017,2 hPa 0,0 mm 5,4 km/h (2 Bft) O-SO 247 0 min 0 W/m 11,1 C 23,4 C 12,6 km/h (3 Bft)
29/07/2012 18:30 23,2 C 47 % 1017,2 hPa 0,0 mm 5,8 km/h (2 Bft) SO 225 0 min 0 W/m 11,3 C 23,2 C 5,8 km/h (2 Bft)
29/07/2012 18:40 22,6 C 48 % 1017,2 hPa 0,0 mm 0,0 km/h (0 Bft) SO 225 0 min 0 W/m 11,0 C 22,6 C 0,0 km/h (0 Bft)
29/07/2012 18:50 22,3 C 49 % 1017,3 hPa 0,0 mm 0,4 km/h (0 Bft) SO 225 0 min 0 W/m 11,1 C 22,3 C 0,4 km/h (0 Bft)
29/07/2012 19:00 22,1 C 50 % 1017,3 hPa 0,0 mm 0,0 km/h (0 Bft) SO 225 0 min 0 W/m 11,2 C 22,1 C 0,0 km/h (0 Bft)
29/07/2012 19:10 21,9 C 50 % 1017,4 hPa 0,0 mm 2,5 km/h (1 Bft) O-SO 247 0 min 0 W/m 11,0 C 21,9 C 7,2 km/h (2 Bft)
29/07/2012 19:20 21,8 C 51 % 1017,5 hPa 0,0 mm 0,4 km/h (0 Bft) S 180 0 min 0 W/m 11,2 C 21,8 C 0,4 km/h (0 Bft)
29/07/2012 19:30 21,7 C 52 % 1017,5 hPa 0,0 mm 1,8 km/h (1 Bft) S-SO 202 0 min 0 W/m 11,4 C 21,7 C 9,7 km/h (2 Bft)
29/07/2012 19:40 21,5 C 52 % 1017,6 hPa 0,0 mm 3,2 km/h (1 Bft) S-SO 202 0 min 0 W/m 11,2 C 21,5 C 4,7 km/h (1 Bft)
29/07/2012 19:50 21,1 C 52 % 1017,5 hPa 0,0 mm 0,0 km/h (0 Bft) O-SO 247 0 min 0 W/m 10,9 C 21,1 C 3,6 km/h (1 Bft)
29/07/2012 20:00 21,1 C 53 % 1017,6 hPa 0,0 mm 1,4 km/h (1 Bft) O-NO 292 0 min 0 W/m 11,1 C 21,1 C 3,6 km/h (1 Bft)
29/07/2012 20:10 20,9 C 53 % 1017,6 hPa 0,0 mm 3,6 km/h (1 Bft) O 270 0 min 0 W/m 11,0 C 20,9 C 3,6 km/h (1 Bft)
29/07/2012 20:20 20,6 C 54 % 1017,6 hPa 0,0 mm 3,2 km/h (1 Bft) SO 225 0 min 0 W/m 11,0 C 20,6 C 4,0 km/h (1 Bft)
29/07/2012 20:30 20,5 C 56 % 1017,7 hPa 0,0 mm 0,0 km/h (0 Bft) O-SO 247 0 min 0 W/m 11,4 C 20,5 C 0,0 km/h (0 Bft)
29/07/2012 20:40 20,3 C 57 % 1017,7 hPa 0,0 mm 1,4 km/h (1 Bft) O-SO 247 0 min 0 W/m 11,5 C 20,3 C 2,9 km/h (1 Bft)
29/07/2012 20:50 19,9 C 58 % 1017,8 hPa 0,0 mm 1,1 km/h (1 Bft) SO 225 0 min 0 W/m 11,4 C 19,9 C 1,1 km/h (1 Bft)
29/07/2012 21:00 19,6 C 59 % 1018,0 hPa 0,0 mm 0,0 km/h (0 Bft) SO 225 0 min 0 W/m 11,4 C 19,6 C 0,0 km/h (0 Bft)
29/07/2012 21:10 19,2 C 60 % 1018,0 hPa 0,0 mm 0,0 km/h (0 Bft) O 270 0 min 0 W/m 11,2 C 19,2 C 0,0 km/h (0 Bft)
29/07/2012 21:20 18,9 C 62 % 1018,0 hPa 0,0 mm 1,8 km/h (1 Bft) S-SO 202 0 min 0 W/m 11,5 C 18,9 C 7,9 km/h (2 Bft)
29/07/2012 21:30 18,5 C 63 % 1018,1 hPa 0,0 mm 0,0 km/h (0 Bft) S-SO 202 0 min 0 W/m 11,3 C 18,5 C 0,0 km/h (0 Bft)
29/07/2012 21:40 18,2 C 64 % 1018,3 hPa 0,0 mm 0,0 km/h (0 Bft) O 270 0 min 0 W/m 11,3 C 18,2 C 0,0 km/h (0 Bft)
29/07/2012 21:50 17,8 C 64 % 1018,4 hPa 0,0 mm 0,0 km/h (0 Bft) O 270 0 min 0 W/m 10,9 C 17,8 C 2,9 km/h (1 Bft)
29/07/2012 22:00 17,5 C 65 % 1018,5 hPa 0,0 mm 0,0 km/h (0 Bft) SO 225 0 min 0 W/m 10,8 C 17,5 C 0,0 km/h (0 Bft)
29/07/2012 22:10 17,2 C 66 % 1018,8 hPa 0,0 mm 1,8 km/h (1 Bft) O-NO 292 0 min 0 W/m 10,8 C 17,2 C 6,5 km/h (2 Bft)
29/07/2012 22:20 16,8 C 67 % 1018,9 hPa 0,0 mm 0,0 km/h (0 Bft) O-SO 247 0 min 0 W/m 10,6 C 16,8 C 0,0 km/h (0 Bft)
29/07/2012 22:30 16,4 C 68 % 1019,1 hPa 0,0 mm 0,0 km/h (0 Bft) SO 225 0 min 0 W/m 10,5 C 16,4 C 0,0 km/h (0 Bft)
29/07/2012 22:40 16,1 C 70 % 1019,2 hPa 0,0 mm 0,0 km/h (0 Bft) S-SO 202 0 min 0 W/m 10,6 C 16,1 C 0,0 km/h (0 Bft)
29/07/2012 22:50 15,7 C 71 % 1019,3 hPa 0,0 mm 0,0 km/h (0 Bft) S-SO 202 0 min 0 W/m 10,5 C 15,7 C 0,0 km/h (0 Bft)
29/07/2012 23:00 15,4 C 72 % 1019,4 hPa 0,0 mm 0,0 km/h (0 Bft) S-SO 202 0 min 0 W/m 10,4 C 15,4 C 0,0 km/h (0 Bft)
29/07/2012 23:10 15,1 C 74 % 1019,4 hPa 0,0 mm 0,0 km/h (0 Bft) S-SO 202 0 min 0 W/m 10,5 C 15,1 C 0,0 km/h (0 Bft)
29/07/2012 23:20 14,8 C 73 % 1019,5 hPa 0,0 mm 0,0 km/h (0 Bft) S-SO 202 0 min 0 W/m 10,0 C 14,8 C 0,0 km/h (0 Bft)
29/07/2012 23:30 14,6 C 74 % 1019,5 hPa 0,0 mm 0,0 km/h (0 Bft) O-SO 247 0 min 0 W/m 10,0 C 14,6 C 0,0 km/h (0 Bft)
_ Min-Heure 07:00 17:30 00:00 - 23:30 - - - - 07:00 07:00 23:30
Minimum _ 10,0 C 45 % 1014,8 hPa - 0,0 km/h (0 Bft) - - - - 8,6 C 10,0 C 0,0 km/h (0 Bft)
_ Max-Heure 17:10 08:30 23:30 23:30 14:30 - - 23:30 23:30 11:20 17:10 14:50
Maximum _ 23,7 C 93 % 1019,5 hPa 0,0 mm 8,3 km/h
O-SO (2 Bft)
- - 0 min 0 W/m 13,2 C 23,7 C 15,1 km/h
SO (3 Bft)
Moyenne _ 17,2 C 69 % 1017,2 hPa #0,0 mm 1,7 km/h (1 Bft) S-SO - #0 min. 0 W/m 10,9 C 17,2 C 3,5 km/h (1 Bft)
Saint Bonnet de Bellac- Haute Vienne - France